TimeCST,TemperatureF,Dew PointF,Humidity,Sea Level PressureIn,VisibilityMPH,Wind Direction,Wind SpeedMPH,Gust SpeedMPH,PrecipitationIn,Events,Conditions,WindDirDegrees,DateUTC
12:52 AM,39.9,33.1,77,30.33,10.0,SSE,10.4,-,N/A,,Clear,160,2012-11-17 06:52:00
1:52 AM,39.9,33.1,77,30.32,10.0,SSE,10.4,-,N/A,,Clear,150,2012-11-17 07:52:00
2:52 AM,41.0,34.0,76,30.32,10.0,SSE,13.8,-,N/A,,Clear,150,2012-11-17 08:52:00
3:52 AM,39.0,33.1,79,30.31,10.0,SSE,9.2,-,N/A,,Clear,150,2012-11-17 09:52:00
4:52 AM,41.0,34.0,76,30.30,10.0,SSE,12.7,-,N/A,,Clear,160,2012-11-17 10:52:00
5:52 AM,41.0,34.0,76,30.31,10.0,SSE,12.7,-,N/A,,Scattered Clouds,160,2012-11-17 11:52:00
6:52 AM,41.0,34.0,76,30.31,10.0,SSE,12.7,-,N/A,,Mostly Cloudy,160,2012-11-17 12:52:00
7:52 AM,39.9,34.0,79,30.32,10.0,SSE,10.4,-,N/A,,Mostly Cloudy,160,2012-11-17 13:52:00
8:52 AM,43.0,34.0,71,30.31,10.0,SSE,15.0,-,N/A,,Scattered Clouds,160,2012-11-17 14:52:00
9:52 AM,46.9,35.1,63,30.30,10.0,SSE,12.7,-,N/A,,Mostly Cloudy,160,2012-11-17 15:52:00
10:52 AM,54.0,36.0,51,30.29,10.0,South,15.0,-,N/A,,Mostly Cloudy,170,2012-11-17 16:52:00
11:52 AM,57.0,35.1,44,30.25,10.0,SSE,16.1,-,N/A,,Mostly Cloudy,160,2012-11-17 17:52:00
12:52 PM,57.9,35.1,42,30.21,10.0,South,19.6,27.6,N/A,,Mostly Cloudy,170,2012-11-17 18:52:00
1:52 PM,61.0,34.0,36,30.18,10.0,South,19.6,26.5,N/A,,Mostly Cloudy,170,2012-11-17 19:52:00
2:52 PM,61.0,33.1,35,30.16,10.0,SSE,23.0,32.2,N/A,,Mostly Cloudy,160,2012-11-17 20:52:00
3:52 PM,60.1,33.1,36,30.17,10.0,South,21.9,29.9,N/A,,Mostly Cloudy,170,2012-11-17 21:52:00
4:52 PM,59.0,32.0,36,30.17,10.0,SSE,19.6,31.1,N/A,,Scattered Clouds,160,2012-11-17 22:52:00
5:52 PM,55.9,33.1,42,30.17,10.0,SSE,13.8,-,N/A,,Partly Cloudy,150,2012-11-17 23:52:00
6:52 PM,55.0,33.1,43,30.18,10.0,SSE,16.1,-,N/A,,Partly Cloudy,160,2012-11-18 00:52:00
7:52 PM,52.0,34.0,50,30.19,10.0,SSE,15.0,-,N/A,,Partly Cloudy,160,2012-11-18 01:52:00
8:52 PM,50.0,34.0,54,30.20,10.0,SSE,16.1,-,N/A,,Clear,160,2012-11-18 02:52:00
9:52 PM,51.1,33.1,50,30.19,10.0,SSE,15.0,24.2,N/A,,Scattered Clouds,160,2012-11-18 03:52:00
10:52 PM,50.0,33.1,52,30.19,10.0,SSE,15.0,-,N/A,,Mostly Cloudy,160,2012-11-18 04:52:00
11:52 PM,48.9,30.0,48,30.18,10.0,SSE,13.8,-,N/A,,Mostly Cloudy,160,2012-11-18 05:52:00